When you browse on this site, cookies collect data to enhance your experience and personalize the content and advertising you see.
Visit our Privacy Policy to learn more. By continuing to use the site, you agree to this use of cookies and data.
  • In United Kingdom
  • List of Countries
  • For 7 days
  • Water Temperature
  • Satellite Maps
  • Weather Map
  • Weather Widgets
  • user-avatar
    Login

    Hourly Weather Holon

    Today, 21 May, Tuesday

    Time Temperature Precipitation Wind Pressure Humidity
    00:00 +24°C° 0 mm 2 mps 758 mmHg 68%
    01:00 +24°C° 0 mm 1 mps 758 mmHg 68%
    02:00 +23°C° 0 mm 1 mps 758 mmHg 74%
    03:00 +23°C° 0 mm 1 mps 758 mmHg 72%
    04:00 +23°C° 0 mm 1 mps 759 mmHg 69%
    05:00 +23°C° 0 mm 1 mps 759 mmHg 66%
    06:00 +25°C° 0 mm 1 mps 759 mmHg 59%
    07:00 +27°C° 0 mm 1 mps 759 mmHg 51%
    08:00 +29°C° 0 mm 1 mps 759 mmHg 44%
    09:00 +30°C° 0 mm 2 mps 759 mmHg 41%
    10:00 +31°C° 0 mm 3 mps 759 mmHg 38%
    11:00 +33°C° 0 mm 4 mps 759 mmHg 36%
    12:00 +34°C° 0 mm 5 mps 759 mmHg 36%
    13:00 +34°C° 0 mm 6 mps 759 mmHg 36%
    14:00 +34°C° 0 mm 6 mps 759 mmHg 36%
    15:00 +33°C° 0 mm 6 mps 758 mmHg 37%
    16:00 +32°C° 0 mm 6 mps 758 mmHg 37%
    17:00 +32°C° 0 mm 6 mps 758 mmHg 38%
    18:00 +30°C° 0 mm 5 mps 758 mmHg 40%
    19:00 +29°C° 0 mm 4 mps 759 mmHg 42%
    20:00 +28°C° 0 mm 3 mps 759 mmHg 43%
    21:00 +28°C° 0 mm 3 mps 759 mmHg 43%
    22:00 +27°C° 0 mm 3 mps 759 mmHg 43%
    23:00 +27°C° 0 mm 3 mps 759 mmHg 43%

    Tomorrow, 22 May, Wednesday

    Time Temperature Precipitation Wind Pressure Humidity
    00:00 +27°C° 0 mm 2 mps 759 mmHg 41%
    01:00 +27°C° 0 mm 2 mps 759 mmHg 38%
    02:00 +26°C° 0 mm 1 mps 759 mmHg 36%
    03:00 +26°C° 0 mm 2 mps 759 mmHg 36%
    04:00 +26°C° 0 mm 2 mps 759 mmHg 35%
    05:00 +26°C° 0 mm 2 mps 759 mmHg 35%
    06:00 +28°C° 0 mm 1 mps 759 mmHg 32%
    07:00 +30°C° 0 mm 1 mps 759 mmHg 29%
    08:00 +32°C° 0 mm 1 mps 759 mmHg 25%
    09:00 +34°C° 0 mm 1 mps 759 mmHg 23%
    10:00 +36°C° 0 mm 2 mps 759 mmHg 21%
    11:00 +38°C° 0 mm 2 mps 759 mmHg 19%
    12:00 +38°C° 0 mm 3 mps 759 mmHg 19%
    13:00 +39°C° 0 mm 5 mps 759 mmHg 20%
    14:00 +39°C° 0 mm 6 mps 758 mmHg 21%
    15:00 +37°C° 0 mm 5 mps 758 mmHg 23%
    16:00 +36°C° 0 mm 5 mps 758 mmHg 24%
    17:00 +35°C° 0 mm 5 mps 758 mmHg 26%
    18:00 +34°C° 0 mm 4 mps 758 mmHg 28%
    19:00 +33°C° 0 mm 4 mps 758 mmHg 29%
    20:00 +31°C° 0 mm 3 mps 759 mmHg 31%
    21:00 +31°C° 0 mm 3 mps 759 mmHg 30%
    22:00 +30°C° 0 mm 3 mps 759 mmHg 29%
    23:00 +30°C° 0 mm 3 mps 759 mmHg 29%

    Day after tomorrow, 23 May, Thursday

    Time Temperature Precipitation Wind Pressure Humidity
    00:00 +30°C° 0 mm 2 mps 758 mmHg 27%
    01:00 +30°C° 0 mm 2 mps 758 mmHg 25%
    02:00 +30°C° 0 mm 2 mps 758 mmHg 24%
    03:00 +30°C° 0 mm 2 mps 757 mmHg 23%
    04:00 +30°C° 0 mm 3 mps 757 mmHg 21%
    05:00 +30°C° 0 mm 3 mps 757 mmHg 20%
    06:00 +33°C° 0 mm 3 mps 757 mmHg 20%
    07:00 +35°C° 0 mm 2 mps 757 mmHg 19%
    08:00 +37°C° 0 mm 2 mps 757 mmHg 18%
    09:00 +39°C° 0 mm 2 mps 757 mmHg 18%
    10:00 +40°C° 0 mm 1 mps 757 mmHg 17%
    11:00 +41°C° 0 mm 1 mps 757 mmHg 16%
    12:00 +41°C° 0 mm 2 mps 756 mmHg 16%
    13:00 +43°C° 0 mm 3 mps 756 mmHg 15%
    14:00 +43°C° 0 mm 4 mps 755 mmHg 15%
    15:00 +42°C° 0 mm 5 mps 755 mmHg 17%
    16:00 +41°C° 0 mm 6 mps 755 mmHg 20%
    17:00 +39°C° 0 mm 7 mps 754 mmHg 22%
    18:00 +38°C° 0 mm 6 mps 754 mmHg 23%
    19:00 +36°C° 0 mm 5 mps 754 mmHg 24%
    20:00 +35°C° 0 mm 4 mps 754 mmHg 24%
    21:00 +36°C° 0 mm 4 mps 754 mmHg 23%
    22:00 +36°C° 0 mm 4 mps 754 mmHg 21%
    23:00 +36°C° 0 mm 5 mps 754 mmHg 19%

    24 May, Friday

    Time Temperature Precipitation Wind Pressure Humidity
    00:00 +36°C° 0 mm 5 mps 754 mmHg 18%
    01:00 +36°C° 0 mm 6 mps 754 mmHg 17%
    02:00 +36°C° 0 mm 6 mps 753 mmHg 16%
    03:00 +36°C° 0 mm 6 mps 753 mmHg 16%
    04:00 +36°C° 0 mm 5 mps 753 mmHg 16%
    05:00 +35°C° 0 mm 5 mps 753 mmHg 16%
    06:00 +37°C° 0 mm 4 mps 753 mmHg 17%
    07:00 +39°C° 0 mm 3 mps 754 mmHg 17%
    08:00 +40°C° 0 mm 3 mps 754 mmHg 17%
    09:00 +43°C° 0 mm 3 mps 754 mmHg 16%
    10:00 +44°C° 0 mm 3 mps 754 mmHg 14%
    11:00 +45°C° 0 mm 3 mps 753 mmHg 13%
    12:00 +45°C° 0 mm 3 mps 753 mmHg 13%
    13:00 +46°C° 0 mm 3 mps 753 mmHg 13%
    14:00 +46°C° 0 mm 3 mps 752 mmHg 12%
    15:00 +45°C° 0 mm 3 mps 752 mmHg 13%
    16:00 +44°C° 0 mm 3 mps 752 mmHg 14%
    17:00 +44°C° 0 mm 3 mps 752 mmHg 15%
    18:00 +42°C° 0 mm 3 mps 752 mmHg 15%
    19:00 +40°C° 0 mm 3 mps 752 mmHg 16%
    20:00 +39°C° 0 mm 3 mps 753 mmHg 16%
    21:00 +38°C° 0 mm 2 mps 753 mmHg 19%
    22:00 +36°C° 0 mm 2 mps 753 mmHg 23%
    23:00 +34°C° 0 mm 1 mps 753 mmHg 26%

    25 May, Saturday

    Time Temperature Precipitation Wind Pressure Humidity
    00:00 +35°C° 0 mm 2 mps 753 mmHg 24%
    01:00 +35°C° 0 mm 3 mps 753 mmHg 21%
    02:00 +35°C° 0 mm 4 mps 753 mmHg 19%
    03:00 +33°C° 0 mm 3 mps 753 mmHg 31%
    04:00 +30°C° 0 mm 2 mps 754 mmHg 43%
    05:00 +28°C° 0 mm 1 mps 754 mmHg 56%
    06:00 +28°C° 0 mm 2 mps 755 mmHg 54%
    07:00 +29°C° 0 mm 2 mps 755 mmHg 53%
    08:00 +30°C° 0 mm 3 mps 756 mmHg 52%
    09:00 +30°C° 0 mm 4 mps 756 mmHg 52%
    10:00 +32°C° 0 mm 4 mps 756 mmHg 51%
    11:00 +32°C° 0 mm 5 mps 756 mmHg 51%
    12:00 +32°C° 0 mm 5 mps 756 mmHg 52%
    13:00 +32°C° 0 mm 5 mps 756 mmHg 54%
    14:00 +30°C° 0 mm 5 mps 755 mmHg 55%
    15:00 +30°C° 0 mm 5 mps 755 mmHg 57%
    16:00 +29°C° 0 mm 4 mps 755 mmHg 59%
    17:00 +29°C° 0 mm 4 mps 755 mmHg 60%
    18:00 +28°C° 0 mm 4 mps 756 mmHg 63%
    19:00 +27°C° 0 mm 3 mps 756 mmHg 66%
    20:00 +26°C° 0 mm 3 mps 756 mmHg 68%
    21:00 +26°C° 0 mm 2 mps 756 mmHg 68%
    22:00 +25°C° 0 mm 2 mps 757 mmHg 68%
    23:00 +25°C° 0 mm 2 mps 757 mmHg 68%

    26 May, Sunday

    Time Temperature Precipitation Wind Pressure Humidity
    00:00 +25°C° 0 mm 2 mps 757 mmHg 69%
    01:00 +25°C° 0 mm 2 mps 757 mmHg 70%
    02:00 +24°C° 0 mm 2 mps 756 mmHg 71%
    03:00 +24°C° 0 mm 1 mps 757 mmHg 72%
    04:00 +24°C° 0 mm 1 mps 757 mmHg 73%
    05:00 +23°C° 0 mm 1 mps 757 mmHg 74%
    06:00 +24°C° 0 mm 1 mps 757 mmHg 67%
    07:00 +26°C° 0 mm 1 mps 757 mmHg 60%
    08:00 +27°C° 0 mm 1 mps 757 mmHg 54%
    09:00 +28°C° 0 mm 3 mps 757 mmHg 50%
    10:00 +29°C° 0 mm 4 mps 757 mmHg 46%
    11:00 +30°C° 0 mm 5 mps 756 mmHg 42%
    12:00 +30°C° 0 mm 5 mps 756 mmHg 42%
    13:00 +30°C° 0 mm 5 mps 756 mmHg 42%
    14:00 +30°C° 0 mm 5 mps 755 mmHg 42%
    15:00 +29°C° 0 mm 5 mps 755 mmHg 42%
    16:00 +29°C° 0 mm 5 mps 755 mmHg 43%
    17:00 +28°C° 0 mm 5 mps 755 mmHg 44%
    18:00 +27°C° 0 mm 4 mps 755 mmHg 49%
    19:00 +26°C° 0 mm 3 mps 755 mmHg 55%
    20:00 +25°C° 0 mm 3 mps 756 mmHg 61%
    21:00 +25°C° 0 mm 2 mps 756 mmHg 62%
    22:00 +25°C° 0 mm 2 mps 756 mmHg 64%
    23:00 +24°C° 0 mm 2 mps 756 mmHg 65%
    Show more